Time,TemperatureF,DewpointF,PressureIn,WindDirection,WindDirectionDegrees,WindSpeedMPH,WindSpeedGustMPH,Humidity,HourlyPrecipIn,Conditions,Clouds,dailyrainin,SoftwareType,DateUTC
2013-03-30 00:00:00,44.0,33.4,30.25,ENE,75,0.0,1.0,66,0.00,,CLR,0.00,VWS V14.01,2013-03-30 05:00:00,
2013-03-30 00:05:00,43.9,33.3,30.25,East,94,1.0,1.0,66,0.00,,CLR,0.00,VWS V14.01,2013-03-30 05:05:00,
2013-03-30 00:10:00,43.6,33.4,30.25,East,101,0.0,1.0,67,0.00,,CLR,0.00,VWS V14.01,2013-03-30 05:10:00,
2013-03-30 00:15:00,43.4,33.2,30.25,East,101,0.0,1.0,67,0.00,,CLR,0.00,VWS V14.01,2013-03-30 05:15:00,
2013-03-30 00:20:00,43.3,33.1,30.25,East,86,2.0,2.0,67,0.00,,CLR,0.00,VWS V14.01,2013-03-30 05:20:00,
2013-03-30 00:25:00,43.2,33.4,30.25,East,84,0.0,2.0,68,0.00,,CLR,0.00,VWS V14.01,2013-03-30 05:25:00,
2013-03-30 00:30:00,43.1,33.3,30.25,East,94,1.0,1.0,68,0.00,,CLR,0.00,VWS V14.01,2013-03-30 05:30:00,
2013-03-30 00:35:00,43.1,33.3,30.25,East,84,2.0,2.0,68,0.00,,CLR,0.00,VWS V14.01,2013-03-30 05:35:00,
2013-03-30 00:40:00,43.2,33.4,30.25,East,83,1.0,2.0,68,0.00,,CLR,0.00,VWS V14.01,2013-03-30 05:40:00,
2013-03-30 00:46:00,43.3,33.5,30.25,East,90,1.0,2.0,68,0.00,,CLR,0.00,VWS V14.01,2013-03-30 05:46:00,
2013-03-30 00:50:00,43.3,33.5,30.25,East,90,0.0,2.0,68,0.00,,CLR,0.00,VWS V14.01,2013-03-30 05:50:00,
2013-03-30 00:51:00,43.3,33.5,30.25,East,90,0.0,0.0,68,0.00,,CLR,0.00,VWS V14.01,2013-03-30 05:51:00,
2013-03-30 00:56:00,43.2,33.4,30.25,East,91,0.0,1.0,68,0.00,,CLR,0.00,VWS V14.01,2013-03-30 05:56:00,
2013-03-30 01:00:00,43.2,33.4,30.25,East,90,0.0,1.0,68,0.00,,CLR,0.00,VWS V14.01,2013-03-30 06:00:00,
2013-03-30 01:02:00,42.9,33.1,30.25,East,90,0.0,0.0,68,0.00,,CLR,0.00,VWS V14.01,2013-03-30 06:02:00,
2013-03-30 01:07:00,42.5,33.1,30.25,East,90,0.0,0.0,69,0.00,,CLR,0.00,VWS V14.01,2013-03-30 06:07:00,
2013-03-30 01:10:00,42.4,33.3,30.25,East,90,0.0,0.0,70,0.00,,CLR,0.00,VWS V14.01,2013-03-30 06:10:00,
2013-03-30 01:12:00,42.3,33.2,30.25,East,90,0.0,1.0,70,0.00,,CLR,0.00,VWS V14.01,2013-03-30 06:12:00,
2013-03-30 01:17:00,42.5,33.4,30.25,East,90,0.0,1.0,70,0.00,,CLR,0.00,VWS V14.01,2013-03-30 06:17:00,
2013-03-30 01:20:00,42.5,33.4,30.25,East,83,0.0,1.0,70,0.00,,CLR,0.00,VWS V14.01,2013-03-30 06:20:00,
2013-03-30 01:22:00,42.5,33.4,30.25,East,84,0.0,0.0,70,0.00,,CLR,0.00,VWS V14.01,2013-03-30 06:22:00,
2013-03-30 01:27:00,42.5,33.4,30.25,SE,139,0.0,0.0,70,0.00,,CLR,0.00,VWS V14.01,2013-03-30 06:27:00,
2013-03-30 01:30:00,42.4,33.3,30.25,SE,139,0.0,0.0,70,0.00,,CLR,0.00,VWS V14.01,2013-03-30 06:30:00,
2013-03-30 01:32:00,42.4,33.3,30.25,SE,139,0.0,0.0,70,0.00,,CLR,0.00,VWS V14.01,2013-03-30 06:32:00,
2013-03-30 01:38:00,42.3,33.6,30.24,SE,140,0.0,0.0,71,0.00,,CLR,0.00,VWS V14.01,2013-03-30 06:38:00,
2013-03-30 01:40:00,42.3,33.6,30.24,SE,139,0.0,0.0,71,0.00,,CLR,0.00,VWS V14.01,2013-03-30 06:40:00,
2013-03-30 01:43:00,42.4,33.7,30.24,SE,139,0.0,0.0,71,0.00,,CLR,0.00,VWS V14.01,2013-03-30 06:43:00,
2013-03-30 01:48:00,42.5,33.8,30.24,SE,139,0.0,0.0,71,0.00,,CLR,0.00,VWS V14.01,2013-03-30 06:48:00,
2013-03-30 01:50:00,42.5,33.8,30.24,SE,139,0.0,0.0,71,0.00,,CLR,0.00,VWS V14.01,2013-03-30 06:50:00,
2013-03-30 01:53:00,42.5,33.8,30.24,ESE,110,0.0,0.0,71,0.00,,CLR,0.00,VWS V14.01,2013-03-30 06:53:00,
2013-03-30 01:58:00,42.3,33.6,30.24,ESE,110,0.0,0.0,71,0.00,,CLR,0.00,VWS V14.01,2013-03-30 06:58:00,
2013-03-30 02:00:00,42.3,33.6,30.24,ESE,110,0.0,0.0,71,0.00,,CLR,0.00,VWS V14.01,2013-03-30 07:00:00,
2013-03-30 02:03:00,42.1,33.7,30.24,ESE,123,0.0,0.0,72,0.00,,CLR,0.00,VWS V14.01,2013-03-30 07:03:00,
2013-03-30 02:08:00,41.7,33.3,30.24,ESE,123,0.0,0.0,72,0.00,,CLR,0.00,VWS V14.01,2013-03-30 07:08:00,
2013-03-30 02:10:00,41.7,33.3,30.24,ESE,123,0.0,0.0,72,0.00,,CLR,0.00,VWS V14.01,2013-03-30 07:10:00,
2013-03-30 02:14:00,41.4,33.4,30.24,ESE,122,0.0,0.0,73,0.00,,CLR,0.00,VWS V14.01,2013-03-30 07:14:00,
2013-03-30 02:19:00,41.3,33.7,30.23,ESE,123,0.0,0.0,74,0.00,,CLR,0.00,VWS V14.01,2013-03-30 07:19:00,
2013-03-30 02:20:00,41.3,33.7,30.23,ESE,122,0.0,0.0,74,0.00,,CLR,0.00,VWS V14.01,2013-03-30 07:20:00,
2013-03-30 02:24:00,41.5,33.8,30.23,ESE,123,0.0,0.0,74,0.00,,CLR,0.00,VWS V14.01,2013-03-30 07:24:00,
2013-03-30 02:29:00,41.4,33.4,30.23,East,95,0.0,0.0,73,0.00,,CLR,0.00,VWS V14.01,2013-03-30 07:29:00,
2013-03-30 02:30:00,41.4,33.4,30.23,East,95,0.0,0.0,73,0.00,,CLR,0.00,VWS V14.01,2013-03-30 07:30:00,
2013-03-30 02:34:00,41.2,33.5,30.22,East,87,0.0,0.0,74,0.00,,CLR,0.00,VWS V14.01,2013-03-30 07:34:00,
2013-03-30 02:39:00,41.0,33.4,30.22,East,101,0.0,0.0,74,0.00,,CLR,0.00,VWS V14.01,2013-03-30 07:39:00,
2013-03-30 02:40:00,41.1,33.5,30.22,East,84,0.0,0.0,74,0.00,,CLR,0.00,VWS V14.01,2013-03-30 07:40:00,
2013-03-30 02:44:00,40.9,33.6,30.22,East,89,1.0,2.0,75,0.00,,CLR,0.00,VWS V14.01,2013-03-30 07:44:00,
2013-03-30 02:50:00,40.8,33.5,30.22,ESE,105,0.0,1.0,75,0.00,,CLR,0.00,VWS V14.01,2013-03-30 07:50:00,
2013-03-30 02:55:00,40.7,33.4,30.22,ESE,108,1.0,2.0,75,0.00,,CLR,0.00,VWS V14.01,2013-03-30 07:55:00,
2013-03-30 03:00:00,40.7,33.7,30.22,SSE,150,0.0,1.0,76,0.00,,CLR,0.00,VWS V14.01,2013-03-30 08:00:00,
2013-03-30 03:05:00,40.6,33.6,30.22,SE,143,0.0,1.0,76,0.00,,CLR,0.00,VWS V14.01,2013-03-30 08:05:00,
2013-03-30 03:10:00,40.6,33.6,30.22,SE,143,0.0,0.0,76,0.00,,CLR,0.00,VWS V14.01,2013-03-30 08:10:00,
2013-03-30 03:15:00,40.2,33.2,30.21,SE,143,0.0,1.0,76,0.00,,CLR,0.00,VWS V14.01,2013-03-30 08:15:00,
2013-03-30 03:20:00,39.9,33.3,30.21,SE,134,0.0,2.0,77,0.00,,CLR,0.00,VWS V14.01,2013-03-30 08:20:00,
2013-03-30 03:25:00,39.7,33.4,30.21,ESE,103,1.0,2.0,78,0.00,,CLR,0.00,VWS V14.01,2013-03-30 08:25:00,
2013-03-30 03:30:00,39.6,33.3,30.21,SE,139,1.0,2.0,78,0.00,,CLR,0.00,VWS V14.01,2013-03-30 08:30:00,
2013-03-30 03:31:00,39.5,33.2,30.22,SE,127,1.0,2.0,78,0.00,,CLR,0.00,VWS V14.01,2013-03-30 08:31:00,
2013-03-30 03:36:00,39.4,33.1,30.22,ESE,120,0.0,2.0,78,0.00,,CLR,0.00,VWS V14.01,2013-03-30 08:36:00,
2013-03-30 03:40:00,39.4,33.4,30.22,SE,138,1.0,2.0,79,0.00,,CLR,0.00,VWS V14.01,2013-03-30 08:40:00,
2013-03-30 03:41:00,39.3,33.3,30.22,SSE,147,1.0,2.0,79,0.00,,CLR,0.00,VWS V14.01,2013-03-30 08:41:00,
2013-03-30 03:46:00,39.2,33.2,30.22,SSE,156,0.0,2.0,79,0.00,,CLR,0.00,VWS V14.01,2013-03-30 08:46:00,
2013-03-30 03:50:00,39.1,33.2,30.22,SSE,156,0.0,2.0,79,0.00,,CLR,0.00,VWS V14.01,2013-03-30 08:50:00,
2013-03-30 03:52:00,38.9,33.0,30.22,SSE,155,0.0,0.0,79,0.00,,CLR,0.00,VWS V14.01,2013-03-30 08:52:00,
2013-03-30 03:57:00,38.8,33.2,30.22,SSE,155,0.0,1.0,80,0.00,,CLR,0.00,VWS V14.01,2013-03-30 08:57:00,
2013-03-30 04:00:00,38.6,32.7,30.22,SSE,155,0.0,1.0,79,0.00,,CLR,0.00,VWS V14.01,2013-03-30 09:00:00,
2013-03-30 04:02:00,38.4,32.8,30.22,East,85,1.0,1.0,80,0.00,,CLR,0.00,VWS V14.01,2013-03-30 09:02:00,
2013-03-30 04:07:00,38.1,32.8,30.22,SSE,153,1.0,1.0,81,0.00,,CLR,0.00,VWS V14.01,2013-03-30 09:07:00,
2013-03-30 04:10:00,38.1,32.8,30.22,SSE,152,0.0,1.0,81,0.00,,CLR,0.00,VWS V14.01,2013-03-30 09:10:00,
2013-03-30 04:12:00,37.9,32.6,30.22,SE,141,0.0,1.0,81,0.00,,CLR,0.00,VWS V14.01,2013-03-30 09:12:00,
2013-03-30 04:17:00,37.8,32.8,30.21,SE,130,1.0,2.0,82,0.00,,CLR,0.00,VWS V14.01,2013-03-30 09:17:00,
2013-03-30 04:20:00,37.8,32.8,30.21,SE,129,0.0,2.0,82,0.00,,CLR,0.00,VWS V14.01,2013-03-30 09:20:00,
2013-03-30 04:23:00,37.7,32.7,30.21,SSE,147,0.0,1.0,82,0.00,,CLR,0.00,VWS V14.01,2013-03-30 09:23:00,
2013-03-30 04:28:00,37.5,32.5,30.21,SE,134,0.0,1.0,82,0.00,,CLR,0.00,VWS V14.01,2013-03-30 09:28:00,
2013-03-30 04:30:00,37.5,32.5,30.21,SSE,150,0.0,1.0,82,0.00,,CLR,0.00,VWS V14.01,2013-03-30 09:30:00,
2013-03-30 04:33:00,37.4,32.7,30.21,SE,138,0.0,1.0,83,0.00,,CLR,0.00,VWS V14.01,2013-03-30 09:33:00,
2013-03-30 04:34:00,37.4,32.7,30.21,ESE,111,1.0,1.0,83,0.00,,CLR,0.00,VWS V14.01,2013-03-30 09:34:00,
2013-03-30 04:39:00,37.4,32.7,30.21,SE,145,1.0,1.0,83,0.00,,CLR,0.00,VWS V14.01,2013-03-30 09:39:00,
2013-03-30 04:40:00,37.4,32.7,30.21,SE,139,0.0,1.0,83,0.00,,CLR,0.00,VWS V14.01,2013-03-30 09:40:00,
2013-03-30 04:44:00,37.8,33.1,30.21,South,171,2.0,3.0,83,0.00,,CLR,0.00,VWS V14.01,2013-03-30 09:44:00,
2013-03-30 04:49:00,37.9,32.9,30.21,SSE,147,0.0,1.0,82,0.00,,CLR,0.00,VWS V14.01,2013-03-30 09:49:00,
2013-03-30 04:50:00,37.9,32.9,30.21,SE,128,1.0,3.0,82,0.00,,CLR,0.00,VWS V14.01,2013-03-30 09:50:00,
2013-03-30 04:55:00,37.8,32.8,30.20,SE,141,0.0,2.0,82,0.00,,CLR,0.00,VWS V14.01,2013-03-30 09:55:00,
2013-03-30 05:00:00,37.8,33.1,30.20,SE,127,1.0,3.0,83,0.00,,CLR,0.00,VWS V14.01,2013-03-30 10:00:00,
2013-03-30 05:05:00,37.9,32.9,30.20,SE,146,1.0,3.0,82,0.00,,CLR,0.00,VWS V14.01,2013-03-30 10:05:00,
2013-03-30 05:10:00,38.2,33.2,30.20,SE,131,1.0,3.0,82,0.00,,CLR,0.00,VWS V14.01,2013-03-30 10:10:00,
2013-03-30 05:15:00,38.3,33.0,30.20,South,181,2.0,3.0,81,0.00,,CLR,0.00,VWS V14.01,2013-03-30 10:15:00,
2013-03-30 05:20:00,38.5,32.9,30.20,SSE,155,2.0,3.0,80,0.00,,CLR,0.00,VWS V14.01,2013-03-30 10:20:00,
2013-03-30 05:25:00,38.6,33.0,30.20,SSE,149,1.0,3.0,80,0.00,,CLR,0.00,VWS V14.01,2013-03-30 10:25:00,
2013-03-30 05:30:00,38.7,33.1,30.20,SSW,198,0.0,3.0,80,0.00,,CLR,0.00,VWS V14.01,2013-03-30 10:30:00,
2013-03-30 05:31:00,38.7,33.1,30.20,South,176,2.0,2.0,80,0.00,,CLR,0.00,VWS V14.01,2013-03-30 10:31:00,
2013-03-30 05:36:00,38.9,33.0,30.19,South,183,0.0,3.0,79,0.00,,CLR,0.00,VWS V14.01,2013-03-30 10:36:00,
2013-03-30 05:40:00,38.9,33.0,30.19,SSE,162,2.0,3.0,79,0.00,,CLR,0.00,VWS V14.01,2013-03-30 10:40:00,
2013-03-30 05:41:00,38.9,33.0,30.19,SSW,198,1.0,2.0,79,0.00,,CLR,0.00,VWS V14.01,2013-03-30 10:41:00,
2013-03-30 05:46:00,38.8,32.9,30.20,SE,136,1.0,2.0,79,0.00,,CLR,0.00,VWS V14.01,2013-03-30 10:46:00,
2013-03-30 05:50:00,38.7,32.8,30.20,SSE,166,1.0,2.0,79,0.00,,CLR,0.00,VWS V14.01,2013-03-30 10:50:00,
2013-03-30 05:51:00,38.7,32.8,30.20,SSE,165,1.0,2.0,79,0.00,,CLR,0.00,VWS V14.01,2013-03-30 10:51:00,
2013-03-30 05:56:00,38.7,32.8,30.20,SSE,164,1.0,3.0,79,0.00,,CLR,0.00,VWS V14.01,2013-03-30 10:56:00,
2013-03-30 06:00:00,38.7,32.8,30.20,SSE,165,0.0,3.0,79,0.00,,CLR,0.00,VWS V14.01,2013-03-30 11:00:00,
2013-03-30 06:01:00,38.6,32.7,30.20,SSE,152,1.0,1.0,79,0.00,,CLR,0.00,VWS V14.01,2013-03-30 11:01:00,
2013-03-30 06:07:00,38.6,32.7,30.20,SSE,155,1.0,1.0,79,0.00,,CLR,0.00,VWS V14.01,2013-03-30 11:07:00,
2013-03-30 06:10:00,38.6,32.7,30.20,SSE,155,0.0,1.0,79,0.00,,CLR,0.00,VWS V14.01,2013-03-30 11:10:00,
2013-03-30 06:12:00,38.6,32.7,30.19,SE,135,2.0,2.0,79,0.00,,CLR,0.00,VWS V14.01,2013-03-30 11:12:00,
2013-03-30 06:17:00,38.5,32.6,30.19,SE,140,3.0,3.0,79,0.00,,CLR,0.00,VWS V14.01,2013-03-30 11:17:00,
2013-03-30 06:20:00,38.5,32.6,30.19,SSE,153,1.0,3.0,79,0.00,,CLR,0.00,VWS V14.01,2013-03-30 11:20:00,
2013-03-30 06:22:00,38.5,32.6,30.19,SSE,165,2.0,3.0,79,0.00,,CLR,0.00,VWS V14.01,2013-03-30 11:22:00,
2013-03-30 06:27:00,38.5,32.6,30.19,SSW,198,2.0,4.0,79,0.00,,CLR,0.00,VWS V14.01,2013-03-30 11:27:00,
2013-03-30 06:30:00,38.5,32.6,30.19,SSE,150,2.0,4.0,79,0.00,,CLR,0.00,VWS V14.01,2013-03-30 11:30:00,
2013-03-30 06:33:00,38.6,32.7,30.19,SSW,197,2.0,4.0,79,0.00,,CLR,0.00,VWS V14.01,2013-03-30 11:33:00,
2013-03-30 06:37:00,38.7,32.8,30.19,SSE,159,2.0,4.0,79,0.00,,CLR,0.00,VWS V14.01,2013-03-30 11:37:00,
2013-03-30 06:40:00,38.7,32.8,30.19,South,188,2.0,4.0,79,0.00,,CLR,0.00,VWS V14.01,2013-03-30 11:40:00,
2013-03-30 06:43:00,38.8,32.9,30.19,SSW,203,2.0,4.0,79,0.00,,,0.00,VWS V14.01,2013-03-30 11:43:00,
2013-03-30 06:48:00,39.0,32.7,30.19,South,188,1.0,4.0,78,0.00,,,0.00,VWS V14.01,2013-03-30 11:48:00,
2013-03-30 06:50:00,39.0,32.7,30.19,South,183,3.0,4.0,78,0.00,,CLR,0.00,VWS V14.01,2013-03-30 11:50:00,
2013-03-30 06:53:00,39.2,32.9,30.19,South,170,2.0,6.0,78,0.00,,,0.00,VWS V14.01,2013-03-30 11:53:00,
2013-03-30 06:58:00,39.4,32.8,30.18,SSW,194,3.0,6.0,77,0.00,,,0.00,VWS V14.01,2013-03-30 11:58:00,
2013-03-30 07:00:00,39.4,32.8,30.18,South,188,2.0,6.0,77,0.00,,CLR,0.00,VWS V14.01,2013-03-30 12:00:00,
2013-03-30 07:03:00,39.5,32.9,30.18,SSW,193,2.0,4.0,77,0.00,,CLR,0.00,VWS V14.01,2013-03-30 12:03:00,
2013-03-30 07:09:00,39.8,32.9,30.18,South,189,2.0,2.0,76,0.00,,CLR,0.00,VWS V14.01,2013-03-30 12:09:00,
2013-03-30 07:10:00,39.8,32.9,30.18,SSW,198,2.0,5.0,76,0.00,,CLR,0.00,VWS V14.01,2013-03-30 12:10:00,
2013-03-30 07:14:00,39.9,33.0,30.18,South,179,2.0,4.0,76,0.00,,CLR,0.00,VWS V14.01,2013-03-30 12:14:00,
2013-03-30 07:19:00,40.2,33.2,30.18,SSE,148,4.0,4.0,76,0.00,,CLR,0.00,VWS V14.01,2013-03-30 12:19:00,
2013-03-30 07:20:00,40.1,33.2,30.18,South,169,2.0,5.0,76,0.00,,CLR,0.00,VWS V14.01,2013-03-30 12:20:00,
2013-03-30 07:24:00,40.6,33.3,30.18,SW,218,0.0,6.0,75,0.00,,CLR,0.00,VWS V14.01,2013-03-30 12:24:00,
2013-03-30 07:29:00,41.2,33.5,30.18,South,186,6.0,6.0,74,0.00,,CLR,0.00,VWS V14.01,2013-03-30 12:29:00,
2013-03-30 07:30:00,41.1,33.5,30.18,SSW,203,4.0,9.0,74,0.00,,CLR,0.00,VWS V14.01,2013-03-30 12:30:00,
2013-03-30 07:34:00,41.7,33.7,30.18,SSW,197,2.0,6.0,73,0.00,,CLR,0.00,VWS V14.01,2013-03-30 12:34:00,
2013-03-30 07:40:00,42.0,34.0,30.18,SSW,208,1.0,5.0,73,0.00,,CLR,0.00,VWS V14.01,2013-03-30 12:40:00,
2013-03-30 07:45:00,42.5,34.1,30.17,South,169,3.0,6.0,72,0.00,,CLR,0.00,VWS V14.01,2013-03-30 12:45:00,
2013-03-30 07:50:00,43.0,34.2,30.17,SSE,150,2.0,5.0,71,0.00,,CLR,0.00,VWS V14.01,2013-03-30 12:50:00,
2013-03-30 07:55:00,43.5,34.4,30.17,SSW,200,4.0,7.0,70,0.00,,CLR,0.00,VWS V14.01,2013-03-30 12:55:00,
2013-03-30 08:00:00,44.0,34.5,30.17,SSE,160,3.0,9.0,69,0.00,,CLR,0.00,VWS V14.01,2013-03-30 13:00:00,
2013-03-30 08:06:00,44.3,34.8,30.17,South,178,3.0,9.0,69,0.00,,CLR,0.00,VWS V14.01,2013-03-30 13:06:00,
2013-03-30 08:10:00,44.6,35.1,30.17,SSE,151,3.0,9.0,69,0.00,,CLR,0.00,VWS V14.01,2013-03-30 13:10:00,
2013-03-30 08:11:00,44.7,35.2,30.17,SSE,161,1.0,7.0,69,0.00,,CLR,0.00,VWS V14.01,2013-03-30 13:11:00,
2013-03-30 08:16:00,45.2,35.7,30.17,South,188,3.0,7.0,69,0.00,,CLR,0.00,VWS V14.01,2013-03-30 13:16:00,
2013-03-30 08:20:00,45.3,35.4,30.17,South,173,4.0,7.0,68,0.00,,CLR,0.00,VWS V14.01,2013-03-30 13:20:00,
2013-03-30 08:21:00,45.5,35.6,30.16,SE,143,3.0,7.0,68,0.00,,CLR,0.00,VWS V14.01,2013-03-30 13:21:00,
2013-03-30 08:27:00,45.9,35.6,30.16,SSW,195,2.0,7.0,67,0.00,,CLR,0.00,VWS V14.01,2013-03-30 13:27:00,
2013-03-30 08:30:00,46.0,35.7,30.16,SW,219,3.0,7.0,67,0.00,,CLR,0.00,VWS V14.01,2013-03-30 13:30:00,
2013-03-30 08:32:00,46.2,35.9,30.16,SSE,168,3.0,4.0,67,0.00,,CLR,0.00,VWS V14.01,2013-03-30 13:32:00,
2013-03-30 08:37:00,46.6,35.9,30.16,SSE,167,3.0,6.0,66,0.00,,CLR,0.00,VWS V14.01,2013-03-30 13:37:00,
2013-03-30 08:40:00,46.7,36.3,30.16,SSW,197,1.0,6.0,67,0.00,,CLR,0.00,VWS V14.01,2013-03-30 13:40:00,
2013-03-30 08:42:00,46.9,36.5,30.15,SSW,205,3.0,4.0,67,0.00,,CLR,0.00,VWS V14.01,2013-03-30 13:42:00,
2013-03-30 08:47:00,47.4,37.0,30.15,SE,131,2.0,5.0,67,0.00,,CLR,0.00,VWS V14.01,2013-03-30 13:47:00,
2013-03-30 08:50:00,47.5,36.7,30.15,SSW,201,3.0,5.0,66,0.00,,CLR,0.00,VWS V14.01,2013-03-30 13:50:00,
2013-03-30 08:52:00,47.8,37.0,30.15,SW,217,4.0,5.0,66,0.00,,CLR,0.00,VWS V14.01,2013-03-30 13:52:00,
2013-03-30 08:57:00,48.2,37.0,30.15,SSW,193,3.0,7.0,65,0.00,,CLR,0.00,VWS V14.01,2013-03-30 13:57:00,
2013-03-30 09:00:00,48.3,37.1,30.15,SSE,163,3.0,7.0,65,0.00,,CLR,0.00,VWS V14.01,2013-03-30 14:00:00,
2013-03-30 09:02:00,48.5,37.3,30.15,SSW,208,5.0,7.0,65,0.00,,CLR,0.00,VWS V14.01,2013-03-30 14:02:00,
2013-03-30 09:08:00,48.9,37.7,30.15,SSE,153,4.0,7.0,65,0.00,,CLR,0.00,VWS V14.01,2013-03-30 14:08:00,
2013-03-30 09:10:00,48.9,37.3,30.15,SW,230,2.0,7.0,64,0.00,,CLR,0.00,VWS V14.01,2013-03-30 14:10:00,
2013-03-30 09:13:00,49.2,37.6,30.15,SSW,208,3.0,5.0,64,0.00,,CLR,0.00,VWS V14.01,2013-03-30 14:13:00,
2013-03-30 09:18:00,49.7,37.6,30.15,South,183,4.0,6.0,63,0.00,,CLR,0.00,VWS V14.01,2013-03-30 14:18:00,
2013-03-30 09:20:00,49.7,37.6,30.15,SSW,203,3.0,6.0,63,0.00,,CLR,0.00,VWS V14.01,2013-03-30 14:20:00,
2013-03-30 09:23:00,50.0,37.9,30.15,WSW,249,5.0,6.0,63,0.00,,CLR,0.00,VWS V14.01,2013-03-30 14:23:00,
2013-03-30 09:28:00,50.4,37.5,30.14,SSW,197,5.0,9.0,61,0.00,,CLR,0.00,VWS V14.01,2013-03-30 14:28:00,
2013-03-30 09:30:00,50.4,37.5,30.14,SSW,197,5.0,9.0,61,0.00,,CLR,0.00,VWS V14.01,2013-03-30 14:30:00,
2013-03-30 09:34:00,50.5,37.6,30.14,South,191,7.0,10.0,61,0.00,,CLR,0.00,VWS V14.01,2013-03-30 14:34:00,
2013-03-30 09:39:00,50.5,37.2,30.15,South,179,5.0,5.0,60,0.00,,CLR,0.00,VWS V14.01,2013-03-30 14:39:00,
2013-03-30 09:40:00,50.5,37.2,30.15,WSW,248,3.0,10.0,60,0.00,,CLR,0.00,VWS V14.01,2013-03-30 14:40:00,
2013-03-30 09:44:00,50.8,37.8,30.15,South,170,5.0,6.0,61,0.00,,CLR,0.00,VWS V14.01,2013-03-30 14:44:00,
2013-03-30 09:49:00,51.1,37.3,30.15,SSW,210,8.0,8.0,59,0.00,,CLR,0.00,VWS V14.01,2013-03-30 14:49:00,
2013-03-30 09:50:00,51.2,37.8,30.15,West,269,8.0,9.0,60,0.00,,CLR,0.00,VWS V14.01,2013-03-30 14:50:00,
2013-03-30 09:54:00,50.6,36.8,30.15,South,185,3.0,12.0,59,0.00,,CLR,0.00,VWS V14.01,2013-03-30 14:54:00,
2013-03-30 09:59:00,50.5,37.6,30.15,SSE,163,4.0,6.0,61,0.00,,CLR,0.00,VWS V14.01,2013-03-30 14:59:00,
2013-03-30 10:00:00,50.4,37.5,30.15,SSW,195,2.0,12.0,61,0.00,,CLR,0.00,VWS V14.01,2013-03-30 15:00:00,
2013-03-30 10:05:00,50.6,37.7,30.14,SW,219,4.0,9.0,61,0.00,,CLR,0.00,VWS V14.01,2013-03-30 15:05:00,
2013-03-30 10:10:00,50.1,37.2,30.14,SSW,203,3.0,13.0,61,0.00,,CLR,0.00,VWS V14.01,2013-03-30 15:10:00,
2013-03-30 10:15:00,49.8,37.3,30.14,SSW,199,7.0,13.0,62,0.00,,CLR,0.00,VWS V14.01,2013-03-30 15:15:00,
2013-03-30 10:20:00,49.9,37.8,30.14,South,169,9.0,10.0,63,0.00,,CLR,0.00,VWS V14.01,2013-03-30 15:20:00,
2013-03-30 10:25:00,50.0,38.3,30.14,South,190,9.0,11.0,64,0.00,,CLR,0.00,VWS V14.01,2013-03-30 15:25:00,
2013-03-30 10:30:00,50.1,38.0,30.14,South,186,6.0,11.0,63,0.00,,CLR,0.00,VWS V14.01,2013-03-30 15:30:00,
2013-03-30 10:31:00,50.1,38.4,30.14,SSE,162,4.0,12.0,64,0.00,,CLR,0.00,VWS V14.01,2013-03-30 15:31:00,
2013-03-30 10:36:00,50.3,38.6,30.14,SSW,207,6.0,12.0,64,0.00,,CLR,0.00,VWS V14.01,2013-03-30 15:36:00,
2013-03-30 10:40:00,50.3,38.2,30.14,SSE,159,7.0,15.0,63,0.00,,CLR,0.00,VWS V14.01,2013-03-30 15:40:00,
2013-03-30 10:41:00,50.4,38.7,30.14,SW,214,7.0,9.0,64,0.00,,CLR,0.00,VWS V14.01,2013-03-30 15:41:00,
2013-03-30 10:46:00,50.7,39.0,30.13,South,170,6.0,12.0,64,0.00,,CLR,0.00,VWS V14.01,2013-03-30 15:46:00,
2013-03-30 10:50:00,50.9,39.2,30.13,SW,222,5.0,12.0,64,0.00,,CLR,0.00,VWS V14.01,2013-03-30 15:50:00,
2013-03-30 10:51:00,51.2,39.5,30.13,South,190,5.0,7.0,64,0.00,,CLR,0.00,VWS V14.01,2013-03-30 15:51:00,
2013-03-30 10:56:00,51.6,39.4,30.13,SSW,208,6.0,10.0,63,0.00,,CLR,0.00,VWS V14.01,2013-03-30 15:56:00,
2013-03-30 11:00:00,51.8,39.6,30.13,South,180,1.0,10.0,63,0.00,,CLR,0.00,VWS V14.01,2013-03-30 16:00:00,
2013-03-30 11:02:00,52.0,39.0,30.13,SSW,203,2.0,12.0,61,0.00,,CLR,0.00,VWS V14.01,2013-03-30 16:02:00,
2013-03-30 11:07:00,52.4,39.4,30.13,SSE,158,4.0,12.0,61,0.00,,CLR,0.00,VWS V14.01,2013-03-30 16:07:00,
2013-03-30 11:10:00,52.5,39.0,30.13,SW,234,8.0,12.0,60,0.00,,CLR,0.00,VWS V14.01,2013-03-30 16:10:00,
2013-03-30 11:12:00,52.7,39.2,30.13,WSW,252,4.0,14.0,60,0.00,,CLR,0.00,VWS V14.01,2013-03-30 16:12:00,
2013-03-30 11:17:00,52.8,39.3,30.12,SSW,203,6.0,14.0,60,0.00,,CLR,0.00,VWS V14.01,2013-03-30 16:17:00,
2013-03-30 11:20:00,52.8,39.3,30.12,South,170,5.0,14.0,60,0.00,,CLR,0.00,VWS V14.01,2013-03-30 16:20:00,
2013-03-30 11:22:00,53.0,39.5,30.12,SSE,152,4.0,12.0,60,0.00,,CLR,0.00,VWS V14.01,2013-03-30 16:22:00,
2013-03-30 11:27:00,53.2,39.3,30.12,South,177,14.0,17.0,59,0.00,,CLR,0.00,VWS V14.01,2013-03-30 16:27:00,
2013-03-30 11:30:00,53.1,39.2,30.11,SSW,211,5.0,17.0,59,0.00,,CLR,0.00,VWS V14.01,2013-03-30 16:30:00,
2013-03-30 11:32:00,53.1,39.6,30.11,SW,222,4.0,13.0,60,0.00,,CLR,0.00,VWS V14.01,2013-03-30 16:32:00,
2013-03-30 11:37:00,53.3,39.3,30.11,SSW,212,7.0,13.0,59,0.00,,CLR,0.00,VWS V14.01,2013-03-30 16:37:00,
2013-03-30 11:40:00,53.3,39.3,30.11,SW,229,3.0,13.0,59,0.00,,CLR,0.00,VWS V14.01,2013-03-30 16:40:00,
2013-03-30 11:42:00,53.3,39.3,30.11,SSW,200,10.0,14.0,59,0.00,,CLR,0.00,VWS V14.01,2013-03-30 16:42:00,
2013-03-30 11:48:00,53.4,39.9,30.11,SW,217,7.0,14.0,60,0.00,,CLR,0.00,VWS V14.01,2013-03-30 16:48:00,
2013-03-30 11:50:00,53.4,39.5,30.11,SW,229,3.0,14.0,59,0.00,,CLR,0.00,VWS V14.01,2013-03-30 16:50:00,
2013-03-30 11:53:00,53.5,40.0,30.11,SW,214,2.0,12.0,60,0.00,,CLR,0.00,VWS V14.01,2013-03-30 16:53:00,
2013-03-30 11:58:00,53.5,40.0,30.10,SSW,207,6.0,12.0,60,0.00,,CLR,0.00,VWS V14.01,2013-03-30 16:58:00,
2013-03-30 12:00:00,53.5,40.0,30.10,WSW,245,3.0,12.0,60,0.00,,CLR,0.00,VWS V14.01,2013-03-30 17:00:00,
2013-03-30 12:03:00,53.6,40.1,30.10,South,187,11.0,20.0,60,0.00,,CLR,0.00,VWS V14.01,2013-03-30 17:03:00,
2013-03-30 12:08:00,53.4,40.3,30.10,SSW,211,9.0,20.0,61,0.00,,CLR,0.00,VWS V14.01,2013-03-30 17:08:00,
2013-03-30 12:10:00,53.4,40.3,30.10,SSW,210,7.0,20.0,61,0.00,,CLR,0.00,VWS V14.01,2013-03-30 17:10:00,
2013-03-30 12:13:00,53.6,40.9,30.10,SSW,195,7.0,9.0,62,0.00,,CLR,0.00,VWS V14.01,2013-03-30 17:13:00,
2013-03-30 12:18:00,53.8,40.7,30.09,West,259,3.0,13.0,61,0.00,,CLR,0.00,VWS V14.01,2013-03-30 17:18:00,
2013-03-30 12:20:00,53.8,40.7,30.09,West,259,3.0,13.0,61,0.00,,CLR,0.00,VWS V14.01,2013-03-30 17:20:00,
2013-03-30 12:24:00,53.7,40.6,30.09,SSE,168,7.0,16.0,61,0.00,,CLR,0.00,VWS V14.01,2013-03-30 17:24:00,
2013-03-30 12:29:00,53.8,41.1,30.09,SW,218,6.0,12.0,62,0.00,,CLR,0.00,VWS V14.01,2013-03-30 17:29:00,
2013-03-30 12:30:00,53.9,41.2,30.09,SSW,197,8.0,16.0,62,0.00,,CLR,0.00,VWS V14.01,2013-03-30 17:30:00,
2013-03-30 12:34:00,53.9,41.2,30.08,SSE,165,6.0,16.0,62,0.00,,CLR,0.00,VWS V14.01,2013-03-30 17:34:00,
2013-03-30 12:39:00,54.1,41.0,30.08,South,172,1.0,8.0,61,0.00,,CLR,0.00,VWS V14.01,2013-03-30 17:39:00,
2013-03-30 12:40:00,54.1,41.0,30.08,West,281,4.0,16.0,61,0.00,,CLR,0.00,VWS V14.01,2013-03-30 17:40:00,
2013-03-30 12:44:00,54.3,41.2,30.08,SW,229,9.0,13.0,61,0.00,,CLR,0.00,VWS V14.01,2013-03-30 17:44:00,
2013-03-30 12:49:00,54.4,40.8,30.07,SE,141,3.0,7.0,60,0.00,,CLR,0.00,VWS V14.01,2013-03-30 17:49:00,
2013-03-30 12:50:00,54.4,41.2,30.08,SSW,195,4.0,13.0,61,0.00,,CLR,0.00,VWS V14.01,2013-03-30 17:50:00,
2013-03-30 12:54:00,54.2,41.1,30.07,South,190,4.0,14.0,61,0.00,,CLR,0.00,VWS V14.01,2013-03-30 17:54:00,
2013-03-30 12:59:00,54.4,41.7,30.06,South,186,12.0,12.0,62,0.00,,CLR,0.00,VWS V14.01,2013-03-30 17:59:00,
2013-03-30 13:00:00,54.3,41.6,30.06,SW,223,3.0,17.0,62,0.00,,CLR,0.00,VWS V14.01,2013-03-30 18:00:00,
2013-03-30 13:04:00,54.3,42.0,30.06,South,180,8.0,13.0,63,0.00,,CLR,0.00,VWS V14.01,2013-03-30 18:04:00,
2013-03-30 13:10:00,54.3,42.4,30.06,South,169,12.0,15.0,64,0.00,,CLR,0.00,VWS V14.01,2013-03-30 18:10:00,
2013-03-30 13:15:00,54.5,42.6,30.06,SSE,165,2.0,15.0,64,0.00,,CLR,0.00,VWS V14.01,2013-03-30 18:15:00,
2013-03-30 13:20:00,54.6,42.7,30.06,WNW,287,3.0,7.0,64,0.00,,CLR,0.00,VWS V14.01,2013-03-30 18:20:00,
2013-03-30 13:25:00,54.7,42.4,30.05,WSW,239,5.0,10.0,63,0.00,,CLR,0.00,VWS V14.01,2013-03-30 18:25:00,
2013-03-30 13:30:00,54.7,42.4,30.05,SW,215,6.0,16.0,63,0.00,,CLR,0.00,VWS V14.01,2013-03-30 18:30:00,
2013-03-30 13:35:00,54.6,42.7,30.05,SSE,152,4.0,16.0,64,0.00,,CLR,0.00,VWS V14.01,2013-03-30 18:35:00,
2013-03-30 13:40:00,54.6,42.7,30.05,West,269,7.0,19.0,64,0.00,,CLR,0.00,VWS V14.01,2013-03-30 18:40:00,
2013-03-30 13:46:00,54.6,42.7,30.04,SSW,211,5.0,19.0,64,0.00,,CLR,0.00,VWS V14.01,2013-03-30 18:46:00,
2013-03-30 13:50:00,54.5,43.0,30.04,SSW,201,4.0,19.0,65,0.00,,CLR,0.00,VWS V14.01,2013-03-30 18:50:00,
2013-03-30 13:51:00,54.5,43.0,30.03,SSE,159,10.0,16.0,65,0.00,,CLR,0.00,VWS V14.01,2013-03-30 18:51:00,
2013-03-30 13:56:00,54.6,43.5,30.03,SW,223,12.0,16.0,66,0.00,,CLR,0.00,VWS V14.01,2013-03-30 18:56:00,
2013-03-30 14:00:00,54.6,43.1,30.03,West,263,6.0,17.0,65,0.00,,CLR,0.00,VWS V14.01,2013-03-30 19:00:00,
2013-03-30 14:01:00,54.7,43.2,30.03,WSW,251,8.0,14.0,65,0.00,,CLR,0.00,VWS V14.01,2013-03-30 19:01:00,
2013-03-30 14:06:00,55.0,42.7,30.02,SW,225,5.0,15.0,63,0.00,,CLR,0.00,VWS V14.01,2013-03-30 19:06:00,
2013-03-30 14:10:00,55.1,42.3,30.02,South,173,13.0,16.0,62,0.00,,CLR,0.00,VWS V14.01,2013-03-30 19:10:00,
2013-03-30 14:12:00,55.2,42.8,30.02,SSW,207,9.0,15.0,63,0.00,,CLR,0.00,VWS V14.01,2013-03-30 19:12:00,
2013-03-30 14:17:00,55.3,42.9,30.02,SSW,200,5.0,18.0,63,0.00,,CLR,0.00,VWS V14.01,2013-03-30 19:17:00,
2013-03-30 14:20:00,55.3,42.9,30.02,SSW,193,6.0,18.0,63,0.00,,CLR,0.00,VWS V14.01,2013-03-30 19:20:00,
2013-03-30 14:22:00,55.3,42.1,30.01,SW,231,6.0,18.0,61,0.00,,CLR,0.00,VWS V14.01,2013-03-30 19:22:00,
2013-03-30 14:27:00,55.4,42.6,30.01,South,191,8.0,22.0,62,0.00,,CLR,0.00,VWS V14.01,2013-03-30 19:27:00,
2013-03-30 14:30:00,55.5,42.7,30.01,SSW,208,5.0,22.0,62,0.00,,CLR,0.00,VWS V14.01,2013-03-30 19:30:00,
2013-03-30 14:32:00,56.0,42.8,30.01,South,173,8.0,14.0,61,0.00,,CLR,0.00,VWS V14.01,2013-03-30 19:32:00,
2013-03-30 14:38:00,56.1,42.8,30.01,SW,224,6.0,17.0,61,0.00,,CLR,0.00,VWS V14.01,2013-03-30 19:38:00,
2013-03-30 14:40:00,56.1,43.3,30.01,SSW,210,4.0,17.0,62,0.00,,CLR,0.00,VWS V14.01,2013-03-30 19:40:00,
2013-03-30 14:43:00,56.0,42.8,30.01,West,269,12.0,12.0,61,0.00,,CLR,0.00,VWS V14.01,2013-03-30 19:43:00,
2013-03-30 14:48:00,55.6,42.8,30.01,SW,231,6.0,17.0,62,0.00,,CLR,0.00,VWS V14.01,2013-03-30 19:48:00,
2013-03-30 14:50:00,55.7,42.9,30.01,West,259,7.0,17.0,62,0.00,,CLR,0.00,VWS V14.01,2013-03-30 19:50:00,
2013-03-30 14:53:00,55.5,41.0,30.01,SW,215,4.0,15.0,58,0.00,,CLR,0.00,VWS V14.01,2013-03-30 19:53:00,
2013-03-30 14:58:00,55.6,41.5,30.01,SW,229,6.0,17.0,59,0.00,,CLR,0.00,VWS V14.01,2013-03-30 19:58:00,
2013-03-30 15:00:00,55.6,41.5,30.01,SW,229,6.0,17.0,59,0.00,,CLR,0.00,VWS V14.01,2013-03-30 20:00:00,
2013-03-30 15:03:00,55.6,41.5,30.01,WSW,255,5.0,22.0,59,0.00,,CLR,0.00,VWS V14.01,2013-03-30 20:03:00,
2013-03-30 15:08:00,55.4,41.3,30.01,WSW,239,6.0,22.0,59,0.00,,CLR,0.00,VWS V14.01,2013-03-30 20:08:00,
2013-03-30 15:10:00,55.4,41.3,30.01,WSW,239,6.0,22.0,59,0.00,,CLR,0.00,VWS V14.01,2013-03-30 20:10:00,
2013-03-30 15:14:00,55.5,40.5,30.01,South,170,9.0,13.0,57,0.00,,CLR,0.00,VWS V14.01,2013-03-30 20:14:00,
2013-03-30 15:19:00,55.5,41.4,30.01,East,80,6.0,11.0,59,0.00,,CLR,0.00,VWS V14.01,2013-03-30 20:19:00,
2013-03-30 15:20:00,55.5,41.4,30.01,South,186,10.0,14.0,59,0.00,,CLR,0.00,VWS V14.01,2013-03-30 20:20:00,
2013-03-30 15:24:00,55.7,42.9,30.01,West,267,8.0,13.0,62,0.00,,CLR,0.00,VWS V14.01,2013-03-30 20:24:00,
2013-03-30 15:29:00,55.7,43.3,30.01,WSW,249,3.0,4.0,63,0.00,,CLR,0.00,VWS V14.01,2013-03-30 20:29:00,
2013-03-30 15:30:00,55.7,43.3,30.01,SW,231,4.0,13.0,63,0.00,,CLR,0.00,VWS V14.01,2013-03-30 20:30:00,
2013-03-30 15:34:00,56.2,42.5,30.01,WNW,300,6.0,11.0,60,0.00,,CLR,0.00,VWS V14.01,2013-03-30 20:34:00,
2013-03-30 15:39:00,56.1,41.1,30.01,SW,225,8.0,14.0,57,0.00,,CLR,0.00,VWS V14.01,2013-03-30 20:39:00,
2013-03-30 15:40:00,56.1,41.5,30.01,SSE,165,12.0,12.0,58,0.00,,CLR,0.00,VWS V14.01,2013-03-30 20:40:00,
2013-03-30 15:44:00,55.7,40.7,30.01,WNW,300,6.0,14.0,57,0.00,,SCT110,0.00,VWS V14.01,2013-03-30 20:44:00,
2013-03-30 15:50:00,55.5,40.5,30.01,SSW,196,5.0,8.0,57,0.00,,SCT110,0.00,VWS V14.01,2013-03-30 20:50:00,
2013-03-30 15:55:00,55.5,42.3,30.01,SSE,165,10.0,14.0,61,0.00,,SCT110,0.00,VWS V14.01,2013-03-30 20:55:00,
2013-03-30 16:00:00,55.3,42.5,30.01,East,97,5.0,12.0,62,0.00,,SCT120,0.00,VWS V14.01,2013-03-30 21:00:00,
2013-03-30 16:05:00,55.3,42.9,30.00,SSE,165,2.0,12.0,63,0.00,,SCT120,0.00,VWS V14.01,2013-03-30 21:05:00,
2013-03-30 16:10:00,55.2,42.4,30.00,SW,214,1.0,12.0,62,0.00,,SCT120,0.00,VWS V14.01,2013-03-30 21:10:00,
2013-03-30 16:15:00,55.1,42.3,30.00,West,264,6.0,21.0,62,0.00,,SCT120,0.00,VWS V14.01,2013-03-30 21:15:00,
2013-03-30 16:20:00,55.2,42.0,30.00,WNW,289,3.0,11.0,61,0.00,,CLR,0.00,VWS V14.01,2013-03-30 21:20:00,
2013-03-30 16:26:00,55.3,41.7,30.00,WNW,293,4.0,11.0,60,0.00,,CLR,0.00,VWS V14.01,2013-03-30 21:26:00,
2013-03-30 16:30:00,55.4,42.2,30.00,West,271,3.0,13.0,61,0.00,,CLR,0.00,VWS V14.01,2013-03-30 21:30:00,
2013-03-30 16:31:00,55.3,42.1,30.00,West,259,3.0,12.0,61,0.00,,CLR,0.00,VWS V14.01,2013-03-30 21:31:00,
2013-03-30 16:36:00,55.3,42.1,29.99,SSW,200,6.0,12.0,61,0.00,,CLR,0.00,VWS V14.01,2013-03-30 21:36:00,
2013-03-30 16:40:00,55.1,42.3,29.99,SE,145,7.0,12.0,62,0.00,,CLR,0.00,VWS V14.01,2013-03-30 21:40:00,
2013-03-30 16:41:00,55.2,42.8,29.99,WSW,238,3.0,15.0,63,0.00,,SCT120,0.00,VWS V14.01,2013-03-30 21:41:00,
2013-03-30 16:46:00,55.1,41.5,29.99,WSW,255,10.0,15.0,60,0.00,,SCT120,0.00,VWS V14.01,2013-03-30 21:46:00,
2013-03-30 16:50:00,55.0,41.0,29.99,WSW,249,4.0,15.0,59,0.00,,CLR,0.00,VWS V14.01,2013-03-30 21:50:00,
2013-03-30 16:51:00,54.9,40.4,29.98,WSW,238,6.0,12.0,58,0.00,,SCT120,0.00,VWS V14.01,2013-03-30 21:51:00,
2013-03-30 16:56:00,54.8,40.3,29.98,West,260,5.0,12.0,58,0.00,,SCT120,0.00,VWS V14.01,2013-03-30 21:56:00,
2013-03-30 17:00:00,54.7,40.7,29.98,West,274,7.0,14.0,59,0.00,,CLR,0.00,VWS V14.01,2013-03-30 22:00:00,
2013-03-30 17:01:00,54.6,40.6,29.98,SSW,198,1.0,9.0,59,0.00,,SCT120,0.00,VWS V14.01,2013-03-30 22:01:00,
2013-03-30 17:07:00,54.7,41.1,29.98,SW,217,3.0,9.0,60,0.00,,SCT120,0.00,VWS V14.01,2013-03-30 22:07:00,
2013-03-30 17:10:00,54.7,41.1,29.98,SW,222,3.0,9.0,60,0.00,,CLR,0.00,VWS V14.01,2013-03-30 22:10:00,
2013-03-30 17:12:00,54.6,41.4,29.98,SW,217,3.0,6.0,61,0.00,,SCT120,0.00,VWS V14.01,2013-03-30 22:12:00,
2013-03-30 17:17:00,54.5,42.2,29.98,South,176,6.0,9.0,63,0.00,,SCT120,0.00,VWS V14.01,2013-03-30 22:17:00,
2013-03-30 17:20:00,54.5,42.2,29.97,SSW,211,5.0,9.0,63,0.00,,CLR,0.00,VWS V14.01,2013-03-30 22:20:00,
2013-03-30 17:22:00,54.5,42.2,29.98,WSW,255,2.0,7.0,63,0.00,,SCT110,0.00,VWS V14.01,2013-03-30 22:22:00,
2013-03-30 17:27:00,54.6,42.3,29.98,WSW,238,4.0,7.0,63,0.00,,SCT110,0.00,VWS V14.01,2013-03-30 22:27:00,
2013-03-30 17:30:00,54.6,42.3,29.98,SW,222,2.0,7.0,63,0.00,,CLR,0.00,VWS V14.01,2013-03-30 22:30:00,
2013-03-30 17:32:00,54.4,42.1,29.97,WSW,238,3.0,6.0,63,0.00,,SCT110,0.00,VWS V14.01,2013-03-30 22:32:00,
2013-03-30 17:38:00,54.3,42.4,29.97,SSW,212,5.0,13.0,64,0.00,,SCT110,0.00,VWS V14.01,2013-03-30 22:38:00,
2013-03-30 17:40:00,54.2,42.3,29.97,WSW,243,5.0,13.0,64,0.00,,CLR,0.00,VWS V14.01,2013-03-30 22:40:00,
2013-03-30 17:43:00,53.9,42.0,29.97,West,259,6.0,10.0,64,0.00,,SCT110,0.00,VWS V14.01,2013-03-30 22:43:00,
2013-03-30 17:48:00,53.8,41.9,29.96,WSW,255,6.0,10.0,64,0.00,,SCT110,0.00,VWS V14.01,2013-03-30 22:48:00,
2013-03-30 17:50:00,53.7,41.8,29.96,WSW,240,5.0,10.0,64,0.00,,CLR,0.00,VWS V14.01,2013-03-30 22:50:00,
2013-03-30 17:53:00,53.7,42.2,29.96,West,260,1.0,5.0,65,0.00,,SCT110,0.00,VWS V14.01,2013-03-30 22:53:00,
2013-03-30 17:58:00,53.6,41.7,29.96,WSW,239,3.0,8.0,64,0.00,,SCT110,0.00,VWS V14.01,2013-03-30 22:58:00,
2013-03-30 18:00:00,53.6,41.7,29.96,WSW,239,3.0,8.0,64,0.00,,CLR,0.00,VWS V14.01,2013-03-30 23:00:00,
2013-03-30 18:04:00,53.4,41.5,29.95,SSW,200,1.0,11.0,64,0.00,,BKN100,0.00,VWS V14.01,2013-03-30 23:04:00,
2013-03-30 18:09:00,53.3,41.8,29.95,West,273,1.0,4.0,65,0.00,,BKN100,0.00,VWS V14.01,2013-03-30 23:09:00,
2013-03-30 18:10:00,53.3,41.8,29.95,SW,216,4.0,11.0,65,0.00,,CLR,0.00,VWS V14.01,2013-03-30 23:10:00,
2013-03-30 18:14:00,53.1,41.7,29.95,SSW,194,4.0,7.0,65,0.00,,BKN100,0.00,VWS V14.01,2013-03-30 23:14:00,
2013-03-30 18:19:00,53.0,42.0,29.95,SSE,153,4.0,5.0,66,0.00,,BKN100,0.00,VWS V14.01,2013-03-30 23:19:00,
2013-03-30 18:20:00,53.0,42.0,29.95,West,274,2.0,7.0,66,0.00,,CLR,0.00,VWS V14.01,2013-03-30 23:20:00,
2013-03-30 18:24:00,52.9,41.9,29.95,WSW,239,1.0,7.0,66,0.00,,OVC100,0.00,VWS V14.01,2013-03-30 23:24:00,
2013-03-30 18:29:00,52.8,42.2,29.94,SW,236,3.0,8.0,67,0.00,,OVC100,0.00,VWS V14.01,2013-03-30 23:29:00,
2013-03-30 18:30:00,52.8,42.2,29.94,West,260,2.0,7.0,67,0.00,,CLR,0.00,VWS V14.01,2013-03-30 23:30:00,
2013-03-30 18:35:00,52.7,42.1,29.94,SE,142,3.0,8.0,67,0.00,,OVC100,0.00,VWS V14.01,2013-03-30 23:35:00,
2013-03-30 18:40:00,52.6,42.3,29.95,SW,225,6.0,6.0,68,0.00,,OVC100,0.00,VWS V14.01,2013-03-30 23:40:00,
2013-03-30 18:45:00,52.4,42.2,29.95,SW,217,2.0,6.0,68,0.00,,OVC100,0.00,VWS V14.01,2013-03-30 23:45:00,
2013-03-30 18:50:00,52.4,42.2,29.95,South,176,1.0,3.0,68,0.00,,OVC100,0.00,VWS V14.01,2013-03-30 23:50:00,
2013-03-30 18:55:00,52.3,42.5,29.95,WSW,241,0.0,3.0,69,0.00,,OVC100,0.00,VWS V14.01,2013-03-30 23:55:00,
2013-03-30 19:00:00,52.2,42.3,29.95,SW,234,2.0,2.0,69,0.00,,BKN090,0.00,VWS V14.01,2013-03-31 00:00:00,
2013-03-30 19:05:00,52.1,42.2,29.95,SW,224,1.0,4.0,69,0.00,,BKN090,0.00,VWS V14.01,2013-03-31 00:05:00,
2013-03-30 19:10:00,52.0,42.2,29.95,WSW,255,2.0,4.0,69,0.00,,CLR,0.00,VWS V14.01,2013-03-31 00:10:00,
2013-03-30 19:11:00,52.0,42.5,29.95,WSW,242,0.0,3.0,70,0.00,,BKN090,0.00,VWS V14.01,2013-03-31 00:11:00,
2013-03-30 19:16:00,51.9,42.4,29.94,SW,228,0.0,4.0,70,0.00,,BKN090,0.00,VWS V14.01,2013-03-31 00:16:00,
2013-03-30 19:20:00,51.8,42.3,29.94,SSE,163,4.0,4.0,70,0.00,,CLR,0.00,VWS V14.01,2013-03-31 00:20:00,
2013-03-30 19:21:00,51.8,42.7,29.93,SSW,210,2.0,5.0,71,0.00,,OVC090,0.00,VWS V14.01,2013-03-31 00:21:00,
2013-03-30 19:26:00,51.7,42.6,29.94,WSW,240,0.0,5.0,71,0.00,,OVC090,0.00,VWS V14.01,2013-03-31 00:26:00,
2013-03-30 19:30:00,51.6,42.5,29.94,WSW,252,1.0,5.0,71,0.00,,CLR,0.00,VWS V14.01,2013-03-31 00:30:00,
2013-03-30 19:31:00,51.6,42.9,29.94,WSW,248,1.0,3.0,72,0.00,,OVC090,0.00,VWS V14.01,2013-03-31 00:31:00,
2013-03-30 19:37:00,51.5,42.8,29.94,SSW,208,3.0,4.0,72,0.00,,OVC090,0.00,VWS V14.01,2013-03-31 00:37:00,
2013-03-30 19:40:00,51.4,42.7,29.94,WSW,254,2.0,4.0,72,0.00,,CLR,0.00,VWS V14.01,2013-03-31 00:40:00,
2013-03-30 19:42:00,51.4,42.7,29.94,SW,230,2.0,3.0,72,0.00,,OVC080,0.00,VWS V14.01,2013-03-31 00:42:00,
2013-03-30 19:47:00,51.3,43.0,29.94,SSW,212,0.0,3.0,73,0.00,,OVC080,0.00,VWS V14.01,2013-03-31 00:47:00,
2013-03-30 19:50:00,51.3,43.0,29.94,West,270,1.0,3.0,73,0.00,,CLR,0.00,VWS V14.01,2013-03-31 00:50:00,
2013-03-30 19:52:00,51.2,42.9,29.94,WSW,257,0.0,3.0,73,0.00,,OVC080,0.00,VWS V14.01,2013-03-31 00:52:00,
2013-03-30 19:57:00,51.2,42.9,29.93,SW,225,1.0,3.0,73,0.00,,OVC080,0.00,VWS V14.01,2013-03-31 00:57:00,
2013-03-30 20:00:00,51.1,43.1,29.94,SW,229,0.0,3.0,74,0.00,,CLR,0.00,VWS V14.01,2013-03-31 01:00:00,
2013-03-30 20:02:00,51.0,43.0,29.93,SW,216,2.0,6.0,74,0.00,,OVC070,0.00,VWS V14.01,2013-03-31 01:02:00,
2013-03-30 20:08:00,51.0,43.0,29.94,WNW,290,2.0,6.0,74,0.00,,OVC070,0.00,VWS V14.01,2013-03-31 01:08:00,
2013-03-30 20:10:00,50.9,42.9,29.93,WSW,238,3.0,6.0,74,0.00,,CLR,0.00,VWS V14.01,2013-03-31 01:10:00,
2013-03-30 20:13:00,50.9,42.9,29.93,South,187,4.0,6.0,74,0.00,,OVC070,0.00,VWS V14.01,2013-03-31 01:13:00,
2013-03-30 20:18:00,50.9,42.9,29.93,WSW,250,0.0,6.0,74,0.00,,OVC070,0.00,VWS V14.01,2013-03-31 01:18:00,
2013-03-30 20:20:00,50.9,42.9,29.93,WSW,247,1.0,6.0,74,0.00,,CLR,0.00,VWS V14.01,2013-03-31 01:20:00,
2013-03-30 20:23:00,50.9,42.9,29.94,SW,231,2.0,3.0,74,0.00,,OVC065,0.00,VWS V14.01,2013-03-31 01:23:00,
2013-03-30 20:28:00,50.8,42.8,29.93,West,262,1.0,3.0,74,0.00,,OVC065,0.00,VWS V14.01,2013-03-31 01:28:00,
2013-03-30 20:30:00,50.8,42.8,29.93,SW,225,1.0,3.0,74,0.00,,CLR,0.00,VWS V14.01,2013-03-31 01:30:00,
2013-03-30 20:33:00,50.8,43.2,29.94,SW,235,2.0,7.0,75,0.00,,OVC065,0.00,VWS V14.01,2013-03-31 01:33:00,
2013-03-30 20:38:00,50.7,43.1,29.93,SW,231,5.0,7.0,75,0.00,,OVC065,0.00,VWS V14.01,2013-03-31 01:38:00,
2013-03-30 20:40:00,50.7,43.1,29.93,SW,231,5.0,7.0,75,0.00,,CLR,0.00,VWS V14.01,2013-03-31 01:40:00,
2013-03-30 20:43:00,50.8,43.2,29.94,SSW,201,0.0,5.0,75,0.00,,OVC065,0.00,VWS V14.01,2013-03-31 01:43:00,
2013-03-30 20:48:00,50.6,43.3,29.94,WSW,240,2.0,5.0,76,0.00,,OVC065,0.00,VWS V14.01,2013-03-31 01:48:00,
2013-03-30 20:50:00,50.6,43.3,29.94,WSW,240,2.0,5.0,76,0.00,,CLR,0.00,VWS V14.01,2013-03-31 01:50:00,
2013-03-30 20:53:00,50.6,43.3,29.94,WSW,239,1.0,5.0,76,0.00,,OVC065,0.00,VWS V14.01,2013-03-31 01:53:00,
2013-03-30 20:59:00,50.6,43.7,29.93,SW,228,3.0,3.0,77,0.00,,OVC065,0.00,VWS V14.01,2013-03-31 01:59:00,
2013-03-30 21:00:00,50.6,43.7,29.93,West,263,3.0,5.0,77,0.00,,CLR,0.00,VWS V14.01,2013-03-31 02:00:00,
2013-03-30 21:04:00,50.6,43.7,29.93,WSW,240,3.0,11.0,77,0.00,,OVC065,0.00,VWS V14.01,2013-03-31 02:04:00,
2013-03-30 21:09:00,50.6,43.7,29.93,WNW,285,3.0,4.0,77,0.00,,OVC065,0.00,VWS V14.01,2013-03-31 02:09:00,
2013-03-30 21:10:00,50.6,43.7,29.93,West,271,4.0,11.0,77,0.00,,CLR,0.00,VWS V14.01,2013-03-31 02:10:00,
2013-03-30 21:14:00,50.6,44.0,29.93,South,169,4.0,9.0,78,0.00,,OVC065,0.00,VWS V14.01,2013-03-31 02:14:00,
2013-03-30 21:19:00,50.5,43.9,29.93,WSW,240,2.0,3.0,78,0.00,,OVC065,0.00,VWS V14.01,2013-03-31 02:19:00,
2013-03-30 21:20:00,50.5,43.9,29.93,West,259,2.0,9.0,78,0.00,,CLR,0.00,VWS V14.01,2013-03-31 02:20:00,
2013-03-30 21:24:00,50.5,43.9,29.93,WSW,250,2.0,7.0,78,0.00,,OVC065,0.00,VWS V14.01,2013-03-31 02:24:00,
2013-03-30 21:29:00,50.4,43.8,29.93,SW,224,1.0,4.0,78,0.00,,OVC065,0.00,VWS V14.01,2013-03-31 02:29:00,
2013-03-30 21:30:00,50.4,43.8,29.93,West,263,2.0,7.0,78,0.00,,CLR,0.00,VWS V14.01,2013-03-31 02:30:00,
2013-03-30 21:35:00,50.4,43.8,29.93,WSW,253,5.0,8.0,78,0.00,,OVC065,0.00,VWS V14.01,2013-03-31 02:35:00,
2013-03-30 21:40:00,50.4,44.1,29.93,SW,231,4.0,7.0,79,0.00,,OVC055,0.00,VWS V14.01,2013-03-31 02:40:00,
2013-03-30 21:45:00,50.3,43.7,29.93,WSW,250,2.0,9.0,78,0.00,,OVC055,0.00,VWS V14.01,2013-03-31 02:45:00,
2013-03-30 21:50:00,50.3,43.7,29.94,West,270,2.0,4.0,78,0.00,,OVC055,0.00,VWS V14.01,2013-03-31 02:50:00,
2013-03-30 21:55:00,50.3,43.7,29.93,West,277,3.0,7.0,78,0.00,,OVC055,0.00,VWS V14.01,2013-03-31 02:55:00,
2013-03-30 22:00:00,50.3,43.7,29.93,West,269,3.0,6.0,78,0.00,,OVC050,0.00,VWS V14.01,2013-03-31 03:00:00,
2013-03-30 22:05:00,50.2,43.6,29.93,WSW,253,6.0,9.0,78,0.00,,OVC050,0.00,VWS V14.01,2013-03-31 03:05:00,
2013-03-30 22:10:00,50.2,44.0,29.93,WNW,287,2.0,9.0,79,0.00,,CLR,0.00,VWS V14.01,2013-03-31 03:10:00,
2013-03-30 22:11:00,50.1,43.8,29.93,WNW,293,3.0,6.0,79,0.00,,OVC050,0.00,VWS V14.01,2013-03-31 03:11:00,
2013-03-30 22:16:00,50.0,43.8,29.93,West,270,1.0,6.0,79,0.00,,OVC050,0.00,VWS V14.01,2013-03-31 03:16:00,
2013-03-30 22:20:00,50.0,43.8,29.93,SW,236,3.0,6.0,79,0.00,,CLR,0.00,VWS V14.01,2013-03-31 03:20:00,
2013-03-30 22:21:00,49.9,43.7,29.93,WSW,249,5.0,5.0,79,0.00,,OVC033,0.00,VWS V14.01,2013-03-31 03:21:00,
2013-03-30 22:26:00,49.8,43.9,29.93,West,262,5.0,10.0,80,0.00,,OVC033,0.00,VWS V14.01,2013-03-31 03:26:00,
2013-03-30 22:30:00,49.7,43.8,29.93,West,277,2.0,10.0,80,0.00,,CLR,0.00,VWS V14.01,2013-03-31 03:30:00,
2013-03-30 22:32:00,49.5,43.9,29.93,SSW,204,7.0,15.0,81,0.00,,OVC033,0.00,VWS V14.01,2013-03-31 03:32:00,
2013-03-30 22:37:00,49.1,43.5,29.93,WSW,238,5.0,15.0,81,0.00,,OVC033,0.00,VWS V14.01,2013-03-31 03:37:00,
2013-03-30 22:40:00,49.1,43.5,29.93,SSW,193,1.0,15.0,81,0.00,,CLR,0.00,VWS V14.01,2013-03-31 03:40:00,
2013-03-30 22:42:00,48.9,43.7,29.93,WSW,241,1.0,7.0,82,0.00,,OVC031,0.00,VWS V14.01,2013-03-31 03:42:00,
2013-03-30 22:47:00,48.8,43.6,29.93,West,272,2.0,7.0,82,0.00,,OVC031,0.00,VWS V14.01,2013-03-31 03:47:00,
2013-03-30 22:50:00,48.7,43.5,29.93,SSW,208,2.0,7.0,82,0.00,,CLR,0.00,VWS V14.01,2013-03-31 03:50:00,
2013-03-30 22:52:00,48.7,43.5,29.93,West,269,2.0,9.0,82,0.00,,OVC031,0.00,VWS V14.01,2013-03-31 03:52:00,
2013-03-30 22:58:00,48.6,43.4,29.93,West,269,1.0,9.0,82,0.00,,OVC031,0.00,VWS V14.01,2013-03-31 03:58:00,
2013-03-30 23:00:00,48.6,43.4,29.93,WSW,253,4.0,4.0,82,0.00,,OVC027,0.00,VWS V14.01,2013-03-31 04:00:00,
2013-03-30 23:03:00,48.6,43.4,29.93,WSW,243,2.0,5.0,82,0.00,,OVC027,0.00,VWS V14.01,2013-03-31 04:03:00,
2013-03-30 23:09:00,48.5,43.3,29.93,South,177,1.0,1.0,82,0.00,,OVC027,0.00,VWS V14.01,2013-03-31 04:09:00,
2013-03-30 23:10:00,48.5,43.3,29.93,West,274,0.0,6.0,82,0.00,,CLR,0.00,VWS V14.01,2013-03-31 04:10:00,
2013-03-30 23:14:00,48.5,43.6,29.93,West,273,2.0,4.0,83,0.00,,OVC027,0.00,VWS V14.01,2013-03-31 04:14:00,
2013-03-30 23:19:00,48.4,43.5,29.92,WSW,238,1.0,2.0,83,0.00,,OVC027,0.00,VWS V14.01,2013-03-31 04:19:00,
2013-03-30 23:20:00,48.4,43.5,29.92,SW,221,0.0,8.0,83,0.00,,CLR,0.00,VWS V14.01,2013-03-31 04:20:00,
2013-03-30 23:24:00,48.4,43.5,29.92,WSW,245,4.0,6.0,83,0.00,,OVC025,0.00,VWS V14.01,2013-03-31 04:24:00,
2013-03-30 23:29:00,48.3,43.7,29.92,SW,219,5.0,6.0,84,0.00,,OVC025,0.00,VWS V14.01,2013-03-31 04:29:00,
2013-03-30 23:30:00,48.3,43.7,29.92,WNW,288,2.0,8.0,84,0.00,,CLR,0.00,VWS V14.01,2013-03-31 04:30:00,
2013-03-30 23:34:00,48.3,43.7,29.91,West,259,5.0,6.0,84,0.00,,OVC025,0.00,VWS V14.01,2013-03-31 04:34:00,
2013-03-30 23:40:00,48.2,43.6,29.91,WSW,253,2.0,5.0,84,0.00,,OVC023,0.00,VWS V14.01,2013-03-31 04:40:00,
2013-03-30 23:45:00,48.2,43.6,29.91,WSW,257,3.0,5.0,84,0.00,,OVC023,0.00,VWS V14.01,2013-03-31 04:45:00,
2013-03-30 23:50:00,48.2,43.6,29.91,West,266,0.0,4.0,84,0.00,,OVC023,0.00,VWS V14.01,2013-03-31 04:50:00,
2013-03-30 23:55:00,48.1,43.5,29.91,WSW,250,1.0,6.0,84,0.00,,OVC023,0.00,VWS V14.01,2013-03-31 04:55:00,